When you browse on this site, cookies collect data to enhance your experience and personalize the content and advertising you see.
Visit our Privacy Policy to learn more. By continuing to use the site, you agree to this use of cookies and data.
  • en Suisse
  • Liste des pays
  • À 7 jours
  • Température de l'eau
  • Carte satellitaire
  • Carte météo
  • Widgets météo
  • user-avatar
    Se connecter

    Météo par heure à Yevlakh

    Ce jour, 25 Mai, Samedi

    Heure Température Précipitation Vent Pression Humidité
    00:00 +21°C° 0 mm 4 m/s 760 mmHg 65%
    01:00 +21°C° 0 mm 3 m/s 760 mmHg 67%
    02:00 +21°C° 0 mm 2 m/s 760 mmHg 69%
    03:00 +21°C° 0 mm 1 m/s 760 mmHg 70%
    04:00 +22°C° 0 mm 1 m/s 760 mmHg 69%
    05:00 +20°C° 0 mm 0 m/s 760 mmHg 67%
    06:00 +21°C° 0 mm 0 m/s 760 mmHg 65%
    07:00 +22°C° 0 mm 0 m/s 759 mmHg 61%
    08:00 +26°C° 0 mm 1 m/s 759 mmHg 56%
    09:00 +27°C° 0 mm 1 m/s 759 mmHg 51%
    10:00 +29°C° 0 mm 1 m/s 758 mmHg 46%
    11:00 +30°C° 0 mm 1 m/s 758 mmHg 41%
    12:00 +32°C° 0 mm 1 m/s 757 mmHg 36%
    13:00 +32°C° 0.3 mm 1 m/s 757 mmHg 36%
    14:00 +32°C° 0.3 mm 1 m/s 756 mmHg 36%
    15:00 +34°C° 0.3 mm 2 m/s 756 mmHg 36%
    16:00 +32°C° 1.4 mm 2 m/s 756 mmHg 42%
    17:00 +31°C° 1.4 mm 2 m/s 756 mmHg 48%
    18:00 +30°C° 1.4 mm 2 m/s 756 mmHg 53%
    19:00 +29°C° 0.4 mm 2 m/s 756 mmHg 56%
    20:00 +28°C° 0.4 mm 1 m/s 756 mmHg 59%
    21:00 +26°C° 0.4 mm 1 m/s 756 mmHg 62%
    22:00 +26°C° 0.3 mm 2 m/s 757 mmHg 63%
    23:00 +25°C° 0.3 mm 3 m/s 757 mmHg 64%

    Demain, 26 Mai, Dimanche

    Heure Température Précipitation Vent Pression Humidité
    00:00 +24°C° 0.3 mm 3 m/s 757 mmHg 65%
    01:00 +23°C° 0 mm 4 m/s 757 mmHg 64%
    02:00 +23°C° 0 mm 5 m/s 757 mmHg 63%
    03:00 +22°C° 0 mm 6 m/s 757 mmHg 62%
    04:00 +22°C° 0 mm 6 m/s 757 mmHg 62%
    05:00 +23°C° 0 mm 6 m/s 757 mmHg 62%
    06:00 +23°C° 0 mm 7 m/s 757 mmHg 62%
    07:00 +26°C° 0 mm 7 m/s 757 mmHg 55%
    08:00 +28°C° 0 mm 7 m/s 757 mmHg 48%
    09:00 +29°C° 0 mm 7 m/s 757 mmHg 41%
    10:00 +32°C° 0 mm 6 m/s 757 mmHg 37%
    11:00 +34°C° 0 mm 6 m/s 757 mmHg 32%
    12:00 +35°C° 0 mm 5 m/s 756 mmHg 27%
    13:00 +35°C° 0.8 mm 4 m/s 756 mmHg 28%
    14:00 +35°C° 0.8 mm 3 m/s 756 mmHg 29%
    15:00 +34°C° 0.8 mm 2 m/s 755 mmHg 30%
    16:00 +32°C° 1.2 mm 2 m/s 755 mmHg 38%
    17:00 +30°C° 1.2 mm 2 m/s 756 mmHg 45%
    18:00 +29°C° 1.2 mm 1 m/s 756 mmHg 52%
    19:00 +28°C° 0.2 mm 1 m/s 756 mmHg 53%
    20:00 +27°C° 0.2 mm 1 m/s 757 mmHg 53%
    21:00 +26°C° 0.2 mm 1 m/s 758 mmHg 54%
    22:00 +25°C° 2.4 mm 2 m/s 758 mmHg 61%
    23:00 +24°C° 2.4 mm 2 m/s 758 mmHg 68%

    Après-demain, 27 Mai, Lundi

    Heure Température Précipitation Vent Pression Humidité
    00:00 +23°C° 2.4 mm 2 m/s 759 mmHg 75%
    01:00 +22°C° 0.8 mm 3 m/s 759 mmHg 74%
    02:00 +21°C° 0.8 mm 4 m/s 759 mmHg 74%
    03:00 +21°C° 0.8 mm 4 m/s 759 mmHg 73%
    04:00 +21°C° 0 mm 5 m/s 760 mmHg 70%
    05:00 +21°C° 0 mm 6 m/s 760 mmHg 66%
    06:00 +22°C° 0 mm 6 m/s 760 mmHg 63%
    07:00 +23°C° 0 mm 7 m/s 760 mmHg 57%
    08:00 +26°C° 0 mm 7 m/s 760 mmHg 50%
    09:00 +27°C° 0 mm 8 m/s 760 mmHg 44%
    10:00 +29°C° 0 mm 7 m/s 760 mmHg 40%
    11:00 +30°C° 0 mm 7 m/s 760 mmHg 35%
    12:00 +32°C° 0 mm 6 m/s 760 mmHg 31%
    13:00 +33°C° 0 mm 5 m/s 760 mmHg 29%
    14:00 +33°C° 0 mm 4 m/s 760 mmHg 27%
    15:00 +34°C° 0 mm 3 m/s 760 mmHg 25%
    16:00 +32°C° 0 mm 2 m/s 760 mmHg 28%
    17:00 +32°C° 0 mm 2 m/s 760 mmHg 31%
    18:00 +31°C° 0 mm 1 m/s 760 mmHg 34%
    19:00 +29°C° 0 mm 3 m/s 761 mmHg 40%
    20:00 +27°C° 0 mm 4 m/s 762 mmHg 46%
    21:00 +24°C° 0 mm 6 m/s 763 mmHg 52%
    22:00 +23°C° 0 mm 5 m/s 763 mmHg 55%
    23:00 +23°C° 0 mm 4 m/s 764 mmHg 57%

    28 Mai, Mardi

    Heure Température Précipitation Vent Pression Humidité
    00:00 +22°C° 0 mm 3 m/s 764 mmHg 60%
    01:00 +23°C° 0 mm 2 m/s 764 mmHg 60%
    02:00 +21°C° 0 mm 2 m/s 764 mmHg 61%
    03:00 +22°C° 0 mm 1 m/s 764 mmHg 61%
    04:00 +22°C° 0 mm 1 m/s 764 mmHg 61%
    05:00 +23°C° 0 mm 1 m/s 764 mmHg 60%
    06:00 +23°C° 0 mm 1 m/s 764 mmHg 60%
    07:00 +24°C° 0.4 mm 1 m/s 764 mmHg 57%
    08:00 +25°C° 0.4 mm 1 m/s 764 mmHg 55%
    09:00 +26°C° 0.4 mm 1 m/s 764 mmHg 52%
    10:00 +27°C° 0.7 mm 2 m/s 764 mmHg 50%
    11:00 +28°C° 0.7 mm 2 m/s 764 mmHg 47%
    12:00 +29°C° 0.7 mm 3 m/s 764 mmHg 45%
    13:00 +29°C° 0 mm 3 m/s 763 mmHg 44%
    14:00 +30°C° 0 mm 4 m/s 763 mmHg 43%
    15:00 +32°C° 0 mm 4 m/s 763 mmHg 42%
    16:00 +30°C° 0 mm 4 m/s 763 mmHg 44%
    17:00 +30°C° 0 mm 4 m/s 763 mmHg 45%
    18:00 +29°C° 0 mm 4 m/s 763 mmHg 47%
    19:00 +28°C° 0 mm 4 m/s 763 mmHg 49%
    20:00 +27°C° 0 mm 4 m/s 764 mmHg 51%
    21:00 +26°C° 0 mm 4 m/s 764 mmHg 52%
    22:00 +25°C° 0 mm 3 m/s 764 mmHg 54%
    23:00 +24°C° 0 mm 3 m/s 764 mmHg 56%

    29 Mai, Mercredi

    Heure Température Précipitation Vent Pression Humidité
    00:00 +24°C° 0 mm 3 m/s 764 mmHg 58%
    01:00 +23°C° 0 mm 2 m/s 764 mmHg 60%
    02:00 +23°C° 0 mm 2 m/s 764 mmHg 62%
    03:00 +21°C° 0 mm 2 m/s 764 mmHg 64%
    04:00 +23°C° 0 mm 1 m/s 764 mmHg 63%
    05:00 +23°C° 0 mm 1 m/s 764 mmHg 62%
    06:00 +21°C° 0 mm 0 m/s 764 mmHg 62%
    07:00 +22°C° 0 mm 0 m/s 764 mmHg 58%
    08:00 +24°C° 0 mm 0 m/s 764 mmHg 54%
    09:00 +27°C° 0 mm 1 m/s 764 mmHg 50%
    10:00 +28°C° 0 mm 1 m/s 763 mmHg 47%
    11:00 +29°C° 0 mm 2 m/s 763 mmHg 43%
    12:00 +30°C° 0 mm 2 m/s 762 mmHg 40%
    13:00 +31°C° 0 mm 2 m/s 762 mmHg 38%
    14:00 +33°C° 0 mm 3 m/s 762 mmHg 37%
    15:00 +33°C° 0 mm 3 m/s 761 mmHg 35%
    16:00 +33°C° 0 mm 3 m/s 761 mmHg 38%
    17:00 +32°C° 0 mm 4 m/s 761 mmHg 40%
    18:00 +30°C° 0 mm 4 m/s 762 mmHg 43%
    19:00 +29°C° 0 mm 4 m/s 762 mmHg 45%
    20:00 +28°C° 0 mm 4 m/s 762 mmHg 48%
    21:00 +27°C° 0 mm 4 m/s 763 mmHg 50%
    22:00 +26°C° 0 mm 4 m/s 762 mmHg 52%
    23:00 +25°C° 0 mm 3 m/s 762 mmHg 54%

    30 Mai, Jeudi

    Heure Température Précipitation Vent Pression Humidité
    00:00 +24°C° 0 mm 3 m/s 762 mmHg 56%
    01:00 +23°C° 0 mm 2 m/s 762 mmHg 58%
    02:00 +23°C° 0 mm 2 m/s 762 mmHg 60%
    03:00 +22°C° 0 mm 1 m/s 762 mmHg 61%
    04:00 +23°C° 0 mm 1 m/s 762 mmHg 60%
    05:00 +23°C° 0 mm 1 m/s 762 mmHg 58%
    06:00 +22°C° 0 mm 0 m/s 762 mmHg 57%
    07:00 +25°C° 0 mm 1 m/s 762 mmHg 51%
    08:00 +27°C° 0 mm 1 m/s 761 mmHg 46%
    09:00 +28°C° 0 mm 1 m/s 761 mmHg 41%
    10:00 +29°C° 0 mm 1 m/s 761 mmHg 39%
    11:00 +30°C° 0 mm 1 m/s 760 mmHg 36%
    12:00 +31°C° 0 mm 1 m/s 760 mmHg 34%
    13:00 +32°C° 0 mm 2 m/s 759 mmHg 33%
    14:00 +32°C° 0 mm 2 m/s 759 mmHg 32%
    15:00 +34°C° 0 mm 2 m/s 759 mmHg 31%
    16:00 +34°C° 0 mm 2 m/s 759 mmHg 32%
    17:00 +33°C° 0 mm 3 m/s 759 mmHg 34%
    18:00 +33°C° 0 mm 3 m/s 759 mmHg 35%
    19:00 +30°C° 0 mm 3 m/s 760 mmHg 38%
    20:00 +28°C° 0 mm 4 m/s 760 mmHg 42%
    21:00 +26°C° 0 mm 5 m/s 761 mmHg 45%
    22:00 +26°C° 0 mm 4 m/s 761 mmHg 47%
    23:00 +25°C° 0 mm 3 m/s 761 mmHg 48%
    Voir plus